CAPE
94 404 1175 1268 1274 1312 1064 934 986 870 785 820 937 933 850 582 452 355 456 509 514 231 81 21 2 0 0 0 7 16 5 13 23 75 126 46 12 50 147 133 263 432 347
52 363 1206 1309 1363 1428 1349 1118 783 726 661 627 718 611 585 705 713 680 547 607 285 109 7 15 2 0 0 0 0 0 0 0 0 0 0 0 0 0 0 0 0 74 203
28 351 1157 1327 1375 1343 1355 1220 834 789 742 622 486 358 245 158 185 256 658 443 255 173 39 2 0 0 0 0 0 0 0 0 0 0 0 0 3 15 2 0 0 1 2
87 351 1050 1269 1352 1310 1196 1099 765 751 774 629 438 326 264 200 225 685 705 483 407 364 85 4 0 0 0 0 0 0 0 0 0 0 3 20 75 102 37 0 0 0 0
132 320 845 1114 1341 1292 1170 998 829 819 817 749 580 487 551 531 300 286 577 410 355 184 23 2 0 0 0 0 0 0 0 0 0 0 3 44 166 125 3 0 0 0 0
98 299 677 937 1256 1286 1270 1223 1158 913 839 809 672 529 800 775 420 333 416 427 181 57 6 5 0 0 0 0 0 0 0 0 0 0 0 0 213 57 45 15 14 10 1
66 228 499 849 1083 1240 1219 1242 1196 1110 1067 1034 826 641 997 738 378 337 316 230 104 3 0 4 1 0 0 0 0 0 0 0 0 0 0 0 0 0 0 11 13 14 4
17 221 384 588 988 1189 1190 1210 1110 1095 998 903 831 712 963 723 335 226 135 91 6 0 0 0 1 0 0 0 0 0 0 0 0 0 0 0 0 0 0 0 0 0 0
4 124 247 391 676 973 1067 1004 1000 951 859 779 789 596 736 738 428 117 0 3 0 0 0 0 0 0 0 0 0 0 0 0 0 0 0 0 0 0 0 0 0 0 0
0 0 0 157 353 666 976 967 972 903 838 759 664 531 589 494 518 166 0 0 0 0 0 0 0 0 0 0 0 0 0 0 0 0 0 0 0 0 0 0 0 0 0
0 0 0 0 52 319 456 618 898 862 833 744 673 528 424 519 435 99 28 0 0 0 0 0 0 0 0 0 0 0 0 0 0 0 0 0 0 0 0 0 0 0 0
0 0 0 0 0 0 170 333 447 626 743 722 643 521 295 297 237 27 13 5 0 0 0 0 0 0 0 0 0 0 0 0 0 0 0 0 0 0 0 0 0 0 0
0 0 0 0 0 0 0 119 194 385 409 633 690 639 352 188 130 82 7 7 3 1 0 0 0 0 0 0 0 0 0 0 0 0 0 0 0 0 0 0 0 0 0
0 0 0 0 0 0 0 1 70 111 258 298 293 159 249 141 98 72 21 3 3 2 0 0 0 0 0 0 0 0 0 0 0 0 0 0 0 0 0 0 0 0 0
0 0 0 0 0 0 0 0 9 43 48 49 66 84 68 103 97 24 16 14 15 1 0 0 0 0 0 0 0 0 0 0 0 0 0 0 0 0 0 0 0 0 0
0 0 0 0 0 0 0 1 0 0 1 1 1 0 5 14 24 21 13 9 12 6 4 0 0 0 0 0 0 0 0 0 0 0 0 0 0 0 0 0 0 0 1
0 0 0 0 0 0 3 2 0 1 1 1 3 2 1 3 2 0 2 1 0 1 0 0 0 0 0 0 0 0 0 0 0 0 0 0 0 0 0 0 0 0 0
0 0 0 0 0 1 2 2 0 0 0 0 0 1 1 1 1 1 1 1 1 0 0 0 0 0 0 0 0 0 0 0 0 0 0 0 0 0 0 0 0 0 0
0 0 0 0 0 0 0 0 0 0 0 0 0 0 0 0 0 0 0 1 1 0 0 0 0 0 0 0 0 0 0 0 0 0 0 0 0 0 0 0 0 0 0
0 0 0 0 0 0 0 0 0 0 0 0 0 0 0 0 0 0 0 0 0 0 0 0 0 0 0 0 0 0 0 0 0 0 0 0 0 0 0 0 0 0 0
0 0 0 0 0 0 0 0 0 0 0 0 0 0 0 0 0 0 0 0 0 0 0 0 0 0 0 0 0 0 0 0 0 0 0 0 0 0 0 0 0 0 0
0 0 0 0 0 0 0 0 0 0 0 0 0 0 0 0 0 0 0 0 0 0 0 0 0 0 0 0 0 0 0 0 0 0 0 0 0 0 0 0 0 0 0
0 0 0 0 0 0 0 0 0 0 0 0 0 0 0 0 0 0 0 0 0 0 0 0 0 0 0 0 0 0 0 0 0 0 0 0 0 0 0 0 0 0 0
0 0 0 0 0 0 0 0 0 0 0 0 0 0 0 0 0 0 0 0 0 0 0 0 0 0 0 0 0 0 0 0 0 0 0 0 0 0 0 0 0 0 0
0 0 0 0 0 0 0 0 0 0 0 0 0 0 0 0 0 0 0 0 0 0 0 0 0 0 0 0 0 0 0 0 0 0 0 0 0 0 0 0 0 0 0
0 0 0 0 0 0 0 0 0 0 0 0 0 0 0 0 0 0 0 0 0 0 0 0 0 0 0 0 0 0 0 0 0 0 0 0 0 0 0 0 0 0 0
CIN
-325 -212 -53 -19 -9 -8 -8 -20 -18 -22 -28 -24 -13 -7 -7 -30 -34 -38 -20 -4 -9 -26 -63 -114 -123 -0 -0 -0 -31 -79 -23 -10 -5 -19 -6 -16 -5 -2 -8 -7 -0 -0 -0
-396 -241 -58 -34 -14 -6 -6 -21 -40 -43 -47 -46 -31 -35 -25 -6 -4 -4 -3 -1 -11 -45 -112 -105 -34 -0 -0 -0 -0 -0 -0 -0 -0 -0 -0 -0 -0 -0 -0 -0 -0 -7 -5
-224 -255 -75 -36 -21 -12 -12 -19 -45 -42 -42 -49 -55 -67 -82 -89 -69 -40 -2 -3 -9 -18 -55 -0 -0 -0 -0 -0 -0 -0 -0 -0 -0 -0 -0 -0 -45 -17 -4 -0 -0 -0 -0
-407 -254 -85 -52 -33 -30 -29 -30 -52 -50 -41 -50 -67 -73 -78 -83 -60 -1 -0 -1 -1 -4 -54 -26 -0 -0 -0 -0 -0 -0 -0 -0 -0 -0 -2 -1 -0 -0 -4 -0 -0 -0 -0
-390 -289 -118 -61 -33 -30 -34 -44 -53 -40 -28 -24 -33 -36 -21 -16 -35 -23 -2 -4 -2 -22 -74 -1 -0 -0 -0 -0 -0 -0 -0 -0 -0 -0 -1 -2 -0 -0 -2 -0 -0 -0 -0
-429 -316 -172 -89 -34 -17 -11 -9 -10 -29 -32 -29 -30 -32 -1 -0 -12 -13 -5 -3 -28 -88 -13 -3 -0 -0 -0 -0 -0 -0 -0 -0 -0 -0 -0 -0 -0 -16 -20 -5 -13 -7 -4
-459 -343 -197 -90 -50 -27 -19 -9 -7 -5 -3 -2 -11 -17 -0 -4 -16 -11 -7 -24 -83 -1 -1 -1 -0 -0 -0 -0 -0 -0 -0 -0 -0 -0 -0 -0 -0 -0 -0 -0 -0 -4 -6
-543 -359 -263 -158 -28 -7 -8 -3 -4 -3 -3 -3 -4 -8 -1 -3 -25 -41 -70 -90 -74 -0 -0 -0 -0 -0 -0 -0 -0 -0 -0 -0 -0 -0 -0 -0 -0 -0 -0 -0 -0 -0 -0
-116 -398 -318 -242 -130 -27 -3 -3 -3 -3 -6 -5 -3 -8 -2 -1 -10 -89 -0 -36 -0 -0 -0 -0 -0 -0 -0 -0 -0 -0 -0 -0 -0 -0 -0 -0 -0 -0 -0 -0 -0 -0 -0
-0 -0 -0 -339 -235 -129 -45 -31 -15 -11 -6 -6 -8 -12 -5 -5 -2 -54 -7 -0 -0 -0 -0 -0 -0 -0 -0 -0 -0 -0 -0 -0 -0 -0 -0 -0 -0 -0 -0 -0 -0 -0 -0
-0 -0 -0 -0 -263 -223 -160 -101 -39 -31 -24 -24 -21 -25 -30 -9 -15 -82 -166 -9 -14 -0 -0 -0 -0 -0 -0 -0 -0 -0 -0 -0 -0 -0 -0 -0 -0 -0 -0 -0 -0 -0 -0
-0 -0 -0 -0 -0 -0 -270 -169 -113 -53 -28 -20 -21 -33 -81 -68 -80 -159 -77 -41 -0 -0 -0 -0 -0 -0 -0 -0 -0 -0 -0 -0 -0 -0 -0 -0 -0 -0 -0 -0 -0 -0 -0
-0 -0 -0 -0 -0 -0 -0 -241 -177 -79 -51 -9 -10 -11 -47 -86 -112 -132 -43 -43 -44 -40 -0 -0 -0 -0 -0 -0 -0 -0 -0 -0 -0 -0 -0 -0 -0 -0 -0 -0 -0 -0 -0
-0 -0 -0 -0 -0 -0 -0 -0 -199 -129 -57 -49 -58 -98 -62 -96 -111 -128 -44 -46 -55 -60 -0 -0 -0 -0 -0 -0 -0 -0 -0 -0 -0 -0 -0 -0 -0 -0 -0 -0 -0 -0 -0
-0 -0 -0 -0 -0 -0 -0 -0 -260 -198 -151 -142 -124 -99 -107 -89 -96 -39 -41 -49 -51 -64 -0 -0 -0 -0 -0 -0 -0 -0 -0 -0 -0 -0 -0 -0 -0 -0 -0 -0 -0 -0 -0
-0 -0 -0 -0 -0 -0 -0 -0 -0 -4 -1 -5 -10 -0 -27 -18 -15 -27 -37 -44 -57 -59 -71 -0 -0 -0 -0 -0 -0 -0 -0 -0 -0 -0 -0 -0 -0 -0 -0 -0 -0 -0 -0
-0 -0 -0 -0 -0 -0 -0 -0 -0 -0 -0 -0 -0 -0 -4 -29 -43 -3 -52 -30 -18 -95 -0 -0 -0 -0 -0 -0 -0 -0 -0 -0 -0 -0 -0 -0 -0 -0 -0 -0 -0 -0 -0
-0 -0 -0 -0 -0 -0 -0 -0 -0 -0 -0 -0 -0 -0 -0 -0 -0 -0 -0 -0 -0 -0 -0 -0 -0 -0 -0 -0 -0 -0 -0 -0 -0 -0 -0 -0 -0 -0 -0 -0 -0 -0 -0
-0 -0 -0 -0 -0 -0 -0 -0 -0 -0 -0 -0 -0 -0 -0 -0 -0 -0 -0 -0 -0 -0 -0 -0 -0 -0 -0 -0 -0 -0 -0 -0 -0 -0 -0 -0 -0 -0 -0 -0 -0 -0 -0
-0 -0 -0 -0 -0 -0 -0 -0 -0 -0 -0 -0 -0 -0 -0 -0 -0 -0 -0 -0 -0 -0 -0 -0 -0 -0 -0 -0 -0 -0 -0 -0 -0 -0 -0 -0 -0 -0 -0 -0 -0 -0 -0
-0 -0 -0 -0 -0 -0 -0 -0 -0 -0 -0 -0 -0 -0 -0 -0 -0 -0 -0 -0 -0 -0 -0 -0 -0 -0 -0 -0 -0 -0 -0 -0 -0 -0 -0 -0 -0 -0 -0 -0 -0 -0 -0
-0 -0 -0 -0 -0 -0 -0 -0 -0 -0 -0 -0 -0 -0 -0 -0 -0 -0 -0 -0 -0 -0 -0 -0 -0 -0 -0 -0 -0 -0 -0 -0 -0 -0 -0 -0 -0 -0 -0 -0 -0 -0 -0
-0 -0 -0 -0 -0 -0 -0 -0 -0 -0 -0 -0 -0 -0 -0 -0 -0 -0 -0 -0 -0 -0 -0 -0 -0 -0 -0 -0 -0 -0 -0 -0 -0 -0 -0 -0 -0 -0 -0 -0 -0 -0 -0
-0 -0 -0 -0 -0 -0 -0 -0 -0 -0 -0 -0 -0 -0 -0 -0 -0 -0 -0 -0 -0 -0 -0 -0 -0 -0 -0 -0 -0 -0 -0 -0 -0 -0 -0 -0 -0 -0 -0 -0 -0 -0 -0
-0 -0 -0 -0 -0 -0 -0 -0 -0 -0 -0 -0 -0 -0 -0 -0 -0 -0 -0 -0 -0 -0 -0 -0 -0 -0 -0 -0 -0 -0 -0 -0 -0 -0 -0 -0 -0 -0 -0 -0 -0 -0 -0
-0 -0 -0 -0 -0 -0 -0 -0 -0 -0 -0 -0 -0 -0 -0 -0 -0 -0 -0 -0 -0 -0 -0 -0 -0 -0 -0 -0 -0 -0 -0 -0 -0 -0 -0 -0 -0 -0 -0 -0 -0 -0 -0
Wind_Speed
18 23 23 23 23 22 22 17 11 10 11 12 13 14 14 15 16 16 16 16 16 17 18 18 18 18 18 18 17 17 17 17 17 16 17 17 18 18 17 17 16 16 15
18 21 22 22 22 22 22 20 19 14 11 12 13 14 14 15 15 16 17 16 18 18 18 18 18 18 18 17 17 17 17 17 16 16 16 16 17 17 16 16 15 15 15
19 22 21 20 20 20 20 19 18 17 16 14 13 14 14 14 15 16 15 16 18 18 17 18 18 18 18 18 17 17 17 17 16 16 16 16 16 16 16 16 15 15 15
19 20 20 20 18 16 16 16 16 15 15 14 14 14 14 14 14 15 15 16 16 17 17 18 18 18 18 18 18 17 17 17 16 15 15 15 15 15 15 15 15 15 15
18 18 18 18 17 17 15 13 12 12 12 13 13 13 14 14 14 15 15 15 15 16 18 18 18 18 18 18 18 18 17 16 16 16 16 15 15 15 16 16 15 15 15
17 16 16 16 15 15 15 14 12 10 10 11 12 13 13 14 14 15 15 14 15 17 18 18 18 19 19 19 19 18 17 16 16 16 16 16 16 15 15 16 15 15 15
16 15 14 13 13 13 13 12 11 11 10 9 10 11 11 12 14 14 15 15 15 17 18 18 19 19 19 19 19 18 17 16 16 16 16 16 16 16 16 16 16 16 16
17 15 13 12 11 10 9 9 8 8 7 8 8 9 9 10 13 13 14 15 16 17 17 19 19 19 20 19 18 17 17 16 16 16 16 16 18 17 18 18 18 17 18
18 15 13 11 11 10 9 8 6 5 5 6 7 9 8 9 11 12 14 14 16 17 18 19 18 19 19 19 18 17 17 16 16 17 17 18 19 19 19 19 20 20 19
19 18 17 12 8 8 7 8 6 3 3 4 6 8 7 8 9 11 13 15 16 17 17 18 18 19 19 19 18 18 18 18 18 18 18 19 20 20 20 20 20 20 20
21 21 21 19 14 7 3 2 3 1 2 3 6 8 9 10 9 10 12 13 15 15 16 16 18 19 19 19 19 18 18 18 19 19 19 21 21 21 21 21 21 21 21
23 24 23 22 20 16 8 6 5 4 5 7 8 8 10 12 13 11 11 13 15 15 15 15 17 19 20 19 19 19 19 19 19 20 20 22 22 22 22 22 22 22 21
24 24 24 23 21 19 14 10 9 10 9 10 11 11 11 13 14 12 13 13 15 15 15 15 17 19 20 19 19 19 20 20 20 20 21 22 23 23 23 23 23 22 21
26 26 26 25 23 18 10 12 11 12 12 13 16 18 15 14 13 12 12 13 14 15 16 17 18 19 19 20 20 20 20 20 21 21 21 23 23 23 24 23 23 22 22
26 27 27 27 24 19 11 6 9 11 13 16 18 18 18 17 17 15 14 14 15 16 16 18 19 19 20 20 21 22 22 23 23 22 23 23 24 24 24 24 23 22 23
25 26 27 26 25 20 10 6 7 10 13 15 17 19 19 20 20 19 18 17 17 18 18 18 20 21 22 22 22 22 23 23 23 24 24 25 25 26 26 25 24 24 24
23 25 26 24 22 17 12 9 10 12 14 16 17 19 20 20 19 20 20 20 21 22 22 22 22 23 23 25 25 24 24 24 25 26 26 26 26 27 27 27 26 26 26
22 23 22 21 21 18 15 13 13 13 14 16 18 19 19 20 20 19 19 21 23 21 21 23 23 24 25 27 28 28 27 27 27 27 27 26 26 26 27 27 28 28 28
22 21 21 19 18 17 16 15 15 15 16 18 18 19 20 19 18 18 19 21 20 21 23 23 24 25 27 27 27 28 29 29 29 30 30 30 29 28 28 28 28 29 29
20 19 18 18 16 15 15 15 15 16 17 18 19 20 21 20 20 19 20 21 21 21 22 23 24 25 26 29 31 32 31 31 30 31 32 32 31 31 30 31 30 30 30
21 20 19 17 17 14 14 14 14 15 17 18 20 20 21 21 21 20 20 21 21 22 22 23 23 25 26 29 30 32 31 31 29 28 29 28 29 30 32 32 32 32 33
18 19 19 18 17 16 15 14 14 15 17 17 19 20 21 21 21 21 21 22 23 23 24 25 25 25 26 29 30 30 32 30 26 29 28 30 29 31 33 33 33 34 34
16 17 17 18 17 16 15 14 14 15 16 18 19 20 21 22 22 23 22 23 23 24 25 26 27 28 29 29 29 30 33 33 38 28 31 29 33 34 35 35 36 35 35
15 15 15 15 16 16 15 15 15 15 15 16 17 19 21 22 23 24 24 24 25 26 27 27 28 29 28 32 30 31 31 33 36 39 31 37 33 39 38 39 39 39 39
12 13 14 14 15 15 15 15 15 15 15 16 17 19 21 23 25 25 26 26 27 28 28 29 29 30 30 30 31 33 33 33 32 39 46 43 41 38 38 37 39 40 39
11 13 13 13 14 14 14 15 14 14 15 17 19 21 23 24 25 27 27 28 28 29 30 30 30 31 32 32 33 34 35 37 40 41 45 49 49 42 42 39 39 38 38
Wind_Direction
141 137 133 126 124 118 116 87 46 28 21 21 28 23 21 20 26 20 9 2 10 3 355 354 354 354 353 353 357 359 355 355 358 1 5 7 7 5 0 356 355 357 355
122 126 128 122 122 123 116 103 92 54 25 20 23 24 21 16 10 8 9 18 9 2 357 356 356 355 354 350 348 350 350 349 352 358 355 354 357 355 351 345 344 341 345
122 129 125 120 120 116 110 106 95 87 73 51 30 20 13 11 9 6 16 15 8 12 8 355 354 356 356 352 349 351 351 352 357 357 356 355 348 347 347 343 341 339 336
105 124 128 127 120 109 105 98 95 86 76 65 50 38 26 12 358 359 11 1 4 8 9 347 344 339 339 339 343 346 351 351 355 353 349 343 338 343 345 342 339 339 340
92 112 125 128 125 123 114 99 89 80 68 53 39 24 13 9 4 355 352 360 4 349 343 336 328 328 328 327 328 332 337 340 343 349 351 343 335 342 339 342 345 346 345
85 99 116 125 125 127 125 121 106 84 62 44 34 28 25 15 8 1 358 7 359 351 341 334 323 321 322 323 325 329 333 333 335 337 337 335 335 338 343 341 354 2 354
73 90 108 122 124 124 126 122 115 108 94 64 35 28 24 19 8 5 1 350 347 334 333 329 323 321 320 322 326 333 337 339 339 340 335 332 333 332 336 338 337 344 347
64 79 93 120 127 123 120 122 114 104 92 77 61 42 23 13 2 358 350 344 340 343 345 340 329 329 327 326 328 332 337 338 340 338 333 330 327 327 326 323 323 328 331
17 41 63 89 124 136 135 132 126 101 68 49 31 20 30 17 7 2 347 347 340 339 342 342 339 335 333 331 331 334 335 336 336 333 332 327 322 324 323 321 319 318 321
350 346 349 22 67 120 128 143 136 108 49 16 4 360 11 7 9 3 352 347 344 341 341 341 344 338 338 335 334 334 331 332 331 328 329 325 322 326 324 323 321 321 321
329 329 331 333 345 21 58 97 129 120 7 355 348 345 342 342 349 348 346 346 344 345 347 349 343 341 336 333 331 331 331 329 327 325 324 318 316 315 319 322 323 323 321
323 318 322 322 324 330 349 351 346 339 337 335 332 333 331 329 330 335 336 332 335 340 343 344 345 341 336 332 328 327 328 327 326 325 323 319 318 318 318 319 320 320 321
325 328 324 322 324 326 331 335 334 332 327 324 324 326 327 325 325 326 327 328 326 328 332 337 336 332 332 331 329 326 324 323 323 323 322 320 319 318 318 318 319 321 322
322 321 322 323 324 329 333 330 332 332 330 323 316 316 318 318 319 321 322 323 323 322 321 323 325 328 327 325 323 320 320 321 321 321 320 319 319 319 319 318 319 320 320
329 318 317 323 330 333 336 332 338 334 331 327 322 320 315 313 312 314 316 318 319 318 317 318 319 321 321 321 320 316 314 314 314 316 317 317 318 319 319 319 318 319 318
338 331 324 324 322 336 356 5 357 350 342 335 330 325 321 316 311 308 308 309 314 317 315 314 313 313 314 316 316 316 314 312 312 312 312 312 313 314 315 316 317 316 316
342 340 340 343 343 357 9 11 1 354 351 348 345 338 333 328 322 316 312 311 311 310 312 314 315 313 311 310 309 310 312 311 309 308 309 310 310 310 310 311 312 314 314
349 349 353 357 360 10 15 15 9 1 357 350 347 347 344 339 334 328 324 318 317 315 315 311 311 312 312 309 308 307 306 308 309 308 307 308 308 309 309 309 309 308 309
352 354 2 8 15 18 27 30 22 14 7 359 356 353 349 350 347 340 336 333 332 328 324 318 316 314 310 311 310 308 307 305 306 306 304 303 304 304 305 306 306 306 307
357 4 10 18 26 34 35 32 26 20 13 7 1 356 353 352 350 349 344 338 336 334 330 326 321 319 315 311 308 307 307 304 305 304 303 302 302 302 302 302 303 303 304
356 1 13 24 19 33 34 36 27 21 14 11 9 6 5 1 359 356 351 348 345 342 338 337 329 328 324 320 314 310 310 309 307 307 308 307 307 306 303 301 300 299 300
8 4 7 10 14 18 21 27 23 21 18 16 12 9 6 3 1 357 353 349 346 341 339 336 333 327 325 327 320 317 313 314 318 312 312 307 308 307 306 305 303 300 298
14 14 11 9 16 16 21 27 26 19 10 4 3 5 6 6 4 0 358 353 349 344 339 336 334 331 324 325 328 319 311 308 310 316 311 313 311 307 305 303 302 301 300
15 24 23 20 9 4 2 10 13 11 8 2 1 0 0 3 1 359 355 352 348 344 341 338 336 333 328 324 322 324 319 313 307 303 308 309 312 307 306 303 299 298 297
9 13 16 19 21 19 15 13 12 11 6 1 356 353 351 350 349 347 346 345 343 340 339 337 335 334 331 328 325 322 320 317 315 305 299 302 306 308 307 307 304 301 298
357 2 11 12 8 5 7 5 6 3 356 350 347 345 343 342 342 342 341 340 339 338 336 334 333 331 328 326 324 321 319 313 309 307 302 302 300 303 305 305 305 304 303